Wind_Speed
41 41 40 40 39 38 37 36 34 33 32 31 31 30 29 29 29 29 28 28 27 26 25 23 23 22 21 21 21 21 21 22 22 22 22 21 21 20 20 20 19 19 18 17 18 18 18 17 17 17 17 17 17 17 17 18 18 18 19 19 19 19 20 21 22 22 23 23 24 25 26 27 28 30 31 33 33 35 37 37 38 38 38 38 37 37 37 37
43 42 42 41 40 39 38 37 36 34 33 32 32 31 30 29 29 29 29 28 27 26 25 23 23 22 21 21 21 21 21 21 21 21 21 20 20 20 20 20 19 18 18 18 18 18 18 18 18 17 17 18 18 18 17 18 18 19 19 19 19 20 20 22 22 22 23 24 25 26 27 28 30 31 32 34 34 36 38 37 38 40 39 39 38 36 35 35
45 44 44 43 42 41 40 39 38 36 34 33 33 33 31 30 30 30 29 29 28 27 25 24 23 22 22 21 21 20 20 21 21 21 21 21 21 21 21 20 19 18 19 19 19 19 19 19 19 19 18 18 18 17 18 18 19 20 20 19 19 20 21 22 22 23 24 25 26 27 28 29 30 31 32 33 35 36 38 38 39 40 40 41 40 38 36 34
43 43 43 43 43 43 42 41 39 38 36 35 34 34 33 31 30 30 30 29 29 27 26 25 24 23 22 22 21 20 20 20 20 20 20 21 21 21 20 20 19 19 20 20 20 20 20 20 20 20 19 19 18 18 18 19 20 20 20 20 20 21 21 22 23 23 24 25 26 27 28 29 30 31 32 34 35 36 38 39 39 40 40 42 42 40 38 36
40 40 40 40 41 41 42 42 41 40 38 37 36 35 34 33 32 31 30 30 30 29 27 26 25 24 23 22 21 21 20 20 20 20 20 20 20 21 20 20 20 20 20 21 21 20 20 21 21 21 20 19 19 18 19 19 20 21 21 21 21 22 22 23 24 24 24 25 26 27 28 29 31 32 33 34 36 37 37 39 39 40 40 42 43 42 40 38
37 37 38 39 39 39 39 40 41 41 40 39 38 37 36 35 34 32 31 30 30 30 28 27 26 25 24 23 22 22 21 21 20 20 20 20 21 21 21 21 21 22 22 22 21 21 21 22 22 22 21 20 20 19 20 21 22 22 22 23 23 23 24 25 26 25 26 26 26 27 28 30 31 33 33 34 36 37 38 39 39 39 40 41 43 43 41 39
34 34 36 36 37 38 38 38 39 40 41 41 40 39 38 37 35 34 32 31 31 31 30 28 27 26 25 24 23 23 22 21 21 20 21 21 22 22 22 22 23 23 23 23 23 23 23 23 23 22 21 21 21 21 22 22 23 23 24 24 25 25 26 27 27 27 27 27 28 28 29 31 32 33 33 34 36 37 38 39 39 39 39 40 41 43 41 38
32 32 33 34 35 37 38 38 38 38 39 41 42 42 41 39 37 36 34 33 32 32 31 30 29 28 27 25 24 24 23 23 22 22 22 22 23 23 24 24 24 25 24 24 24 24 24 24 23 23 22 22 22 23 23 23 24 24 25 26 26 27 28 29 29 28 28 28 29 29 31 33 34 34 34 34 35 36 38 38 39 39 39 40 41 41 40 38
31 31 31 32 33 35 36 38 38 38 38 39 41 43 43 42 40 38 36 34 33 32 32 31 31 30 28 27 26 25 24 24 24 24 23 24 24 25 25 25 25 25 25 25 25 25 24 24 23 22 22 23 24 24 24 24 24 25 26 27 28 28 29 30 30 30 29 29 30 31 32 34 35 35 35 35 35 36 37 38 39 39 39 40 40 40 40 42
32 31 31 31 32 33 35 36 38 38 38 38 39 41 44 44 43 40 38 37 35 34 33 32 32 32 30 29 28 27 26 26 25 25 25 25 25 26 26 26 26 25 25 25 24 24 24 23 23 23 23 24 24 25 26 26 26 27 28 29 29 30 31 31 30 30 29 30 31 32 34 36 37 37 36 36 36 36 37 38 38 39 40 39 39 39 40 43
32 31 31 31 31 32 33 35 36 37 38 39 39 40 42 44 45 44 41 39 38 36 34 33 33 33 32 31 30 29 28 27 27 27 27 27 26 26 26 26 25 25 25 24 24 24 23 23 23 24 24 25 26 27 28 28 28 29 30 31 30 31 32 31 31 30 30 31 32 33 35 37 38 38 38 37 37 37 37 37 37 39 40 39 38 38 40 43
32 32 31 31 31 32 33 34 35 36 38 38 39 40 41 42 45 46 45 42 40 38 37 35 34 34 33 33 32 31 30 29 29 28 28 28 27 27 27 26 26 25 25 25 25 25 25 24 25 25 26 26 27 28 29 30 30 31 32 31 31 32 32 31 31 31 31 32 33 33 35 38 39 39 39 39 38 38 37 37 38 40 41 39 38 39 40 42
33 33 32 31 31 32 32 33 34 35 36 37 38 40 41 41 43 45 47 46 43 41 39 38 37 36 34 34 34 33 32 32 31 30 30 29 29 28 28 27 27 27 27 27 27 27 26 26 26 27 28 28 29 30 30 31 31 32 32 31 32 32 32 31 31 32 32 33 34 35 37 38 39 39 40 41 40 39 38 38 39 40 41 40 40 40 42 43
34 34 33 32 32 32 32 32 33 34 35 36 37 38 40 41 41 43 46 48 46 44 42 40 39 38 36 35 35 35 34 34 34 33 32 31 31 30 30 29 29 29 29 29 29 29 29 29 29 29 29 30 31 31 31 31 32 33 32 32 32 32 32 32 32 33 33 34 35 36 38 39 40 40 41 41 41 40 39 39 39 40 40 39 40 40 42 43
35 35 34 33 33 32 31 31 32 33 33 34 35 36 38 40 41 41 43 47 48 47 44 43 42 40 39 37 36 36 36 36 35 35 34 33 33 32 32 31 31 31 31 31 31 31 31 31 31 31 31 31 32 31 31 32 33 33 32 32 33 32 32 33 34 34 34 34 35 37 39 41 41 41 42 42 41 41 40 39 39 39 39 38 37 38 39 40
36 36 35 34 34 33 31 30 30 30 31 32 33 34 36 38 40 40 41 44 47 49 47 45 44 43 41 39 38 38 37 37 37 37 36 36 35 34 34 33 33 33 33 33 33 33 33 33 33 33 32 33 33 33 33 34 34 33 32 33 33 33 33 34 35 35 34 34 36 38 40 41 42 43 43 43 42 41 40 39 38 37 37 37 35 35 35 36
37 37 36 35 34 33 32 29 28 27 28 30 31 32 33 36 38 39 41 42 44 48 49 47 45 44 43 41 40 40 39 38 38 38 38 37 37 37 36 35 35 34 34 34 34 35 35 35 35 34 34 34 34 34 34 34 34 33 33 33 33 33 34 34 36 36 35 35 36 38 40 42 43 44 44 44 44 42 40 38 36 35 35 35 33 32 32 32
37 37 37 36 36 34 32 29 26 25 25 27 28 29 31 33 36 38 40 41 42 45 48 49 47 45 44 42 42 41 40 40 39 39 39 38 38 38 37 37 36 36 36 36 36 36 36 36 36 35 35 35 36 36 36 35 34 33 34 33 33 34 34 35 36 37 36 36 37 38 40 41 43 44 45 45 45 43 41 39 35 33 34 34 32 30 30 30
38 38 38 37 36 35 33 29 25 23 23 24 25 27 29 31 33 36 38 40 41 42 45 49 49 46 44 43 43 43 42 41 40 40 40 39 38 38 38 38 38 38 38 38 38 38 38 38 37 37 36 37 38 38 37 35 34 34 34 33 33 34 34 35 36 37 38 37 38 39 40 41 42 43 45 46 45 43 40 39 36 33 33 33 32 29 29 29
39 38 38 38 37 35 33 30 25 22 21 21 23 25 27 29 31 34 36 39 41 42 43 46 49 48 45 44 44 44 43 42 42 42 41 40 39 38 38 38 38 39 39 40 40 41 40 39 39 38 38 39 39 39 38 37 36 36 35 33 34 34 34 36 37 38 38 39 39 40 40 41 42 42 44 46 45 42 40 39 37 34 33 33 32 29 28 28
40 39 38 38 37 36 34 31 26 21 19 19 20 22 25 27 29 32 34 37 41 41 42 44 46 48 47 45 45 44 43 43 43 43 42 41 40 39 39 39 38 39 39 40 41 42 42 41 40 40 40 40 40 39 38 38 37 37 36 35 35 35 35 37 38 38 39 39 39 40 41 41 41 41 43 45 43 41 40 39 39 36 33 33 32 28 27 27
42 39 38 38 37 36 34 31 27 22 19 18 18 20 22 24 27 29 31 35 40 40 41 42 44 46 49 48 46 44 43 44 44 44 43 43 42 41 40 39 39 39 39 40 40 41 41 40 39 40 41 41 40 40 39 39 38 38 37 37 36 36 37 37 38 39 39 39 39 40 40 41 40 40 41 43 41 39 38 38 39 37 34 33 31 27 26 26
45 41 39 38 37 36 35 33 29 24 20 18 17 18 19 22 23 26 27 32 37 38 39 42 43 45 48 50 49 46 45 44 44 45 44 44 43 43 42 41 41 40 40 40 40 41 41 38 38 40 41 41 40 40 39 39 39 39 38 38 38 38 38 38 38 39 39 39 39 39 40 40 40 39 41 42 39 37 37 37 37 36 33 32 30 26 25 25
48 44 41 38 38 37 35 34 31 27 23 19 17 17 17 19 20 22 24 27 33 36 37 40 42 44 46 48 50 49 47 45 44 45 45 45 45 44 43 43 42 41 41 41 42 42 41 38 38 40 40 41 41 40 40 39 39 40 39 39 39 39 38 37 37 39 39 39 39 39 40 40 39 38 39 40 38 36 36 36 36 34 33 31 29 25 23 24
50 48 44 41 38 38 36 35 33 29 25 21 19 17 16 16 17 19 21 24 28 31 34 37 40 42 44 46 49 50 50 48 46 45 46 46 45 45 44 44 43 42 42 43 43 43 40 38 39 40 40 41 41 41 40 40 40 40 39 39 39 39 37 37 37 38 39 38 40 40 39 40 39 37 38 39 37 36 35 36 35 34 32 30 28 24 22 22
52 51 49 45 42 39 38 36 34 31 27 24 20 18 16 15 15 16 18 21 24 27 30 33 37 40 43 45 47 50 50 50 48 47 47 46 46 46 45 45 44 43 44 44 43 43 41 38 39 40 41 41 41 41 40 40 40 39 39 39 38 38 37 37 38 38 38 38 39 39 38 39 39 37 37 38 36 35 35 35 35 33 32 30 28 25 21 21
54 53 52 51 47 43 40 37 35 33 30 26 23 20 17 15 14 14 15 17 21 23 26 28 32 36 40 43 45 47 49 50 49 49 48 49 48 48 47 46 44 44 44 44 44 43 42 40 40 41 42 42 42 42 40 40 40 39 39 38 38 37 36 37 38 37 37 37 38 38 38 38 38 36 36 37 36 35 34 34 35 34 33 31 28 26 23 20
55 55 55 54 53 49 45 41 38 35 32 29 25 22 20 17 14 13 12 14 17 20 22 25 28 32 36 39 42 44 46 48 50 50 50 50 50 50 49 47 46 45 45 45 45 44 44 43 42 42 42 43 43 42 40 41 40 38 38 37 37 37 36 37 38 37 37 37 37 37 37 37 37 35 35 36 35 34 34 34 34 35 34 32 29 27 24 21
56 56 56 56 56 55 52 48 43 39 36 33 29 25 22 20 17 14 12 11 13 16 18 21 24 27 31 35 39 41 43 45 48 51 52 51 50 50 49 49 47 46 46 46 46 45 45 45 44 43 43 43 42 41 40 40 39 38 37 37 37 36 36 37 37 37 38 37 36 36 36 36 36 35 34 35 35 34 33 34 34 34 34 33 31 29 26 23
56 56 57 57 58 58 57 55 51 45 41 36 33 29 26 23 20 16 13 11 10 12 15 18 21 24 26 30 33 37 40 42 44 47 49 51 50 50 49 48 47 47 46 45 45 45 44 44 43 42 42 42 41 41 40 39 38 37 37 37 36 36 35 35 36 36 37 37 36 35 35 35 35 35 35 34 35 34 33 33 33 34 33 33 32 31 28 25
55 56 57 58 59 59 59 59 57 54 48 42 37 33 30 26 23 20 16 13 10 10 12 14 17 20 23 26 29 32 36 39 41 43 45 48 49 49 48 47 46 45 44 44 44 44 44 43 42 41 41 40 40 40 39 38 38 37 37 36 35 34 34 35 36 37 37 38 36 34 34 34 34 34 35 34 34 34 33 32 33 32 32 32 32 32 30 27
53 54 56 58 59 60 61 60 60 59 56 50 44 38 34 30 27 23 20 16 13 10 10 11 14 17 20 23 26 29 32 35 38 39 41 44 47 48 48 47 45 43 43 44 45 45 45 44 43 42 41 41 42 42 41 40 39 38 37 36 34 33 33 35 36 36 37 37 36 34 34 34 34 34 35 34 33 34 33 32 32 32 32 32 32 32 31 29
52 52 54 56 59 61 62 62 61 61 60 57 52 46 40 35 31 27 24 20 16 13 10 10 12 14 17 20 23 26 28 32 35 37 39 41 43 46 48 48 47 46 45 46 47 46 45 45 44 44 43 44 44 43 42 41 40 39 37 35 34 34 33 34 35 35 37 37 35 34 34 34 34 34 35 34 33 34 34 32 31 32 32 32 32 31 31 30
51 52 53 55 57 60 62 62 62 62 61 60 58 54 48 42 37 33 29 25 21 17 14 11 11 12 15 18 21 23 26 30 32 35 37 38 40 43 46 48 49 49 48 48 48 47 46 46 45 44 44 44 44 44 43 42 40 38 37 35 35 35 34 33 34 35 36 36 35 35 34 34 35 34 34 35 34 34 35 34 32 31 31 31 31 31 31 30
51 52 52 53 56 59 61 62 63 62 62 61 60 58 54 50 45 39 35 30 26 22 19 15 13 12 12 15 18 21 24 28 30 33 35 37 39 41 43 46 48 50 51 51 50 50 49 48 46 44 43 43 43 43 43 42 41 39 38 36 36 36 34 32 33 35 35 35 36 36 35 34 35 35 34 35 35 35 35 36 34 32 32 32 32 31 31 30
51 52 52 53 55 57 60 62 63 63 62 61 60 59 57 55 51 47 42 37 32 28 24 20 18 15 14 13 15 18 22 25 28 31 34 36 38 39 41 44 46 49 51 52 52 51 50 49 46 45 45 44 44 43 43 43 42 41 40 39 37 37 35 32 32 34 34 34 36 37 36 35 35 35 34 34 36 36 35 36 36 34 34 33 33 33 33 31
50 51 52 53 54 57 60 62 63 63 63 62 60 59 58 57 55 52 48 43 39 34 30 26 22 19 18 16 15 16 18 21 24 27 31 34 36 38 41 43 45 47 49 51 51 51 50 49 48 47 47 46 46 46 46 45 44 43 43 41 38 37 36 35 33 33 34 34 35 37 37 36 36 35 33 34 36 36 35 36 37 36 35 35 35 35 35 33
49 51 52 53 55 57 59 62 64 65 64 62 61 59 58 57 56 54 52 49 46 41 36 31 27 23 20 19 18 18 18 19 21 23 26 30 33 36 39 41 44 45 48 50 50 51 51 51 51 51 50 49 49 49 49 48 48 47 46 43 40 38 37 36 35 33 33 33 34 37 38 38 37 35 33 34 35 36 37 37 37 38 37 37 36 36 35 35
48 50 52 53 55 57 60 62 64 65 65 64 62 61 59 57 56 55 54 53 51 47 43 37 33 28 24 22 20 19 19 19 21 22 24 26 29 32 34 36 40 43 46 48 49 51 52 53 53 53 53 52 52 52 51 51 51 50 48 45 42 39 38 37 36 34 33 32 33 36 38 40 39 35 33 33 35 37 38 38 37 38 38 38 38 37 36 35
48 50 51 53 55 57 59 61 63 65 66 65 64 62 61 59 57 56 55 54 53 51 48 44 39 34 29 26 23 21 20 20 21 22 23 25 27 29 31 32 35 38 42 45 47 49 50 52 53 53 53 53 53 53 53 53 52 50 48 46 43 40 39 38 36 35 34 33 33 34 37 42 41 36 33 33 35 37 39 39 38 37 38 38 38 37 36 36
47 49 50 52 54 56 58 60 61 63 65 65 65 64 63 61 59 58 57 56 55 53 51 49 45 40 35 30 27 24 22 21 21 22 23 24 26 27 29 31 33 35 38 40 43 46 47 49 50 51 52 52 52 52 52 51 50 48 45 43 42 41 41 39 36 35 36 34 33 33 36 42 42 38 35 34 35 37 38 39 38 36 35 37 37 36 35 36
46 48 49 51 52 55 57 58 60 62 63 65 65 65 64 63 62 60 59 58 57 56 54 52 49 45 41 36 32 28 25 23 22 22 23 24 25 26 27 30 32 33 35 37 40 43 45 46 47 48 49 49 49 49 48 47 45 43 41 40 41 42 41 40 37 37 37 35 34 34 36 41 43 39 37 36 36 37 37 38 38 34 34 35 35 35 36 37
45 47 48 50 51 53 56 57 58 60 62 64 66 66 65 65 64 63 62 61 60 58 57 55 52 50 46 42 38 33 29 26 24 23 23 23 24 25 26 27 29 31 34 36 38 41 42 43 45 47 47 47 47 46 45 44 42 40 39 38 40 42 42 40 38 38 37 35 36 36 35 40 43 40 38 38 38 38 37 38 37 35 35 35 36 36 37 38
44 46 47 49 50 52 54 56 57 59 61 63 65 66 66 66 66 65 65 64 62 61 60 58 55 53 50 47 43 39 35 31 28 26 25 25 25 25 25 26 27 28 30 33 36 39 39 40 42 45 46 47 47 45 45 44 42 41 40 38 39 41 42 41 39 40 38 36 39 38 35 41 44 40 40 40 39 39 39 38 38 37 37 37 37 37 38 39
44 45 46 48 49 51 52 54 56 58 60 62 64 66 67 67 67 67 67 66 65 64 62 60 58 56 52 49 46 43 40 36 32 29 27 25 25 25 26 26 27 27 28 29 32 35 36 38 39 41 42 45 46 45 45 45 43 41 41 40 40 41 42 42 40 40 39 38 40 39 37 41 44 41 41 41 40 40 40 40 39 39 39 39 39 39 39 40
43 44 45 47 48 50 51 53 55 56 58 60 63 65 67 68 68 67 67 67 67 66 65 63 62 59 56 53 49 46 43 39 36 33 30 28 26 24 24 25 26 27 28 28 29 31 32 34 36 37 39 42 44 45 45 45 43 42 41 41 42 42 43 43 41 41 41 40 40 40 40 42 44 43 42 42 41 41 41 41 41 41 41 40 40 41 40 41
42 43 45 47 48 49 50 52 53 55 57 59 61 64 66 67 68 68 68 68 68 67 67 65 64 62 60 57 53 50 46 42 39 35 32 30 28 26 26 25 25 26 27 27 28 29 30 31 32 34 36 39 41 42 44 44 42 42 42 41 43 44 44 43 43 42 43 42 41 42 43 42 45 47 45 43 42 42 42 42 42 42 42 42 42 42 41 41
42 43 45 47 48 50 51 52 53 54 56 58 60 62 64 67 68 68 68 68 68 68 67 67 66 65 63 61 58 54 51 47 43 39 35 32 29 27 26 26 26 25 25 26 26 27 28 29 29 30 33 36 37 40 42 42 41 41 42 41 43 44 44 44 45 45 46 44 44 46 45 43 47 49 47 45 43 42 43 43 42 42 43 43 43 42 41 41
42 43 45 47 48 50 51 52 53 54 55 57 59 61 63 66 67 68 68 68 68 68 68 68 67 67 66 64 62 58 55 51 47 44 41 37 34 30 27 26 26 25 24 25 25 24 25 26 26 27 30 33 35 37 39 39 40 41 41 42 44 45 44 43 45 47 47 46 47 49 47 47 50 50 48 47 46 45 45 44 44 43 43 43 43 42 42 42
42 43 45 46 48 50 51 51 52 53 55 56 57 59 62 64 66 68 69 69 69 69 69 69 69 68 68 67 65 62 59 55 51 47 44 41 37 34 31 28 27 26 24 24 24 23 23 23 22 23 26 30 32 34 36 38 39 39 41 43 44 44 43 43 44 45 46 46 47 47 46 49 52 50 49 49 49 47 47 47 46 45 44 43 42 42 42 43
43 44 45 46 48 50 51 52 52 53 54 55 56 58 60 62 65 67 69 69 70 70 70 70 70 70 69 69 67 65 63 59 55 50 46 43 40 37 34 30 28 27 25 24 23 22 21 20 19 19 22 26 30 32 34 36 37 38 41 43 44 43 43 42 43 44 44 44 45 44 44 47 50 50 49 50 50 50 50 49 48 46 45 43 42 42 43 44
44 45 46 47 48 50 51 52 53 53 54 55 56 57 59 61 63 66 68 69 70 71 72 72 72 71 71 70 69 67 65 62 59 54 50 46 42 39 36 32 29 28 26 24 23 21 20 19 18 18 20 24 29 31 32 33 35 37 41 43 43 42 42 41 41 42 42 42 43 43 45 47 49 50 50 51 51 51 51 50 49 47 45 44 43 44 45 46
Wind_Direction
290 289 288 287 287 286 285 284 283 282 281 281 280 278 276 275 274 273 272 272 272 273 274 275 275 273 271 270 269 268 267 265 264 264 264 262 260 258 257 257 257 256 254 253 251 250 249 249 250 251 254 256 259 260 263 265 266 267 268 269 271 273 272 272 274 274 275 275 275 275 274 275 273 271 270 270 270 270 270 271 271 270 269 265 260 255 251 248
289 288 287 286 285 283 282 281 280 279 278 278 277 276 274 273 272 272 271 270 270 271 272 273 273 272 270 269 267 266 265 264 263 262 261 259 257 256 255 255 254 253 251 248 246 246 247 248 250 252 253 255 258 260 262 264 265 266 267 270 272 273 274 274 276 277 277 277 277 277 276 276 274 273 273 273 272 270 270 270 268 269 269 269 265 260 254 248
288 287 285 283 282 280 279 278 277 276 275 274 274 274 273 271 270 270 269 268 267 267 268 269 270 270 269 267 266 265 264 263 262 260 258 257 256 254 253 252 252 250 248 246 244 245 247 250 251 252 253 254 256 260 263 264 265 266 268 271 273 275 276 277 278 279 279 280 279 279 279 278 277 277 276 276 275 273 273 271 269 268 267 267 266 263 258 251
289 287 285 283 280 278 276 275 274 273 272 271 270 271 271 270 269 268 267 266 264 263 264 265 267 267 267 266 265 264 262 261 260 258 256 255 253 251 250 250 250 249 247 245 245 246 248 250 252 253 253 254 257 261 264 266 268 269 271 274 275 277 278 281 281 282 282 283 283 282 282 281 280 279 278 277 276 275 274 273 271 269 267 266 265 262 259 254
290 288 287 284 282 279 275 273 270 269 269 268 267 266 267 267 267 266 265 264 262 260 260 261 262 264 265 264 263 262 261 259 257 255 253 252 250 248 248 248 248 248 248 247 247 249 250 252 252 253 254 256 259 262 265 269 271 273 275 276 277 279 281 283 285 285 285 285 285 285 285 283 282 282 282 280 280 278 275 273 271 268 266 264 264 263 259 257
291 289 287 285 283 280 277 274 270 267 265 264 264 263 263 263 264 263 263 262 261 259 257 257 258 260 261 262 262 260 259 257 255 252 251 250 248 247 247 246 247 247 248 248 249 250 251 253 254 255 255 258 261 264 268 272 275 276 277 278 279 281 283 285 286 287 288 287 287 287 287 286 286 286 286 286 285 283 280 276 273 269 265 263 262 262 260 258
295 291 288 285 283 281 278 275 272 268 264 261 261 260 259 259 260 261 261 260 259 258 255 254 254 256 257 258 259 258 257 256 254 251 249 248 247 247 247 247 248 248 249 249 250 250 251 253 255 255 256 259 263 267 271 274 276 278 279 279 280 282 284 286 287 288 289 289 290 290 290 290 290 290 290 290 288 286 283 279 276 272 267 263 260 260 259 258
302 297 292 287 283 280 278 275 273 270 266 261 258 257 257 256 256 257 258 257 257 256 255 252 251 252 253 255 256 256 256 255 253 250 248 247 247 247 248 249 251 252 251 250 250 250 251 253 254 255 258 262 266 270 273 276 278 279 280 281 281 283 285 286 288 289 289 291 292 292 292 293 293 293 293 292 289 287 284 281 277 273 268 263 259 258 257 253
308 304 299 293 287 281 278 275 272 269 266 263 259 256 255 254 254 253 254 254 254 254 254 252 250 250 250 252 253 254 254 254 253 251 249 248 249 249 250 251 253 253 252 250 249 249 250 251 254 257 261 265 269 272 275 276 279 281 282 282 283 284 285 287 288 289 290 291 293 293 293 294 295 296 296 295 292 289 286 281 277 274 269 264 260 256 253 249
312 309 305 299 293 286 280 275 272 269 266 263 260 257 254 252 252 251 250 251 251 251 252 251 250 249 248 249 250 251 252 252 253 252 251 250 251 251 252 253 253 253 251 249 248 247 249 251 256 260 264 268 271 275 276 278 280 283 283 283 284 286 286 288 289 289 290 292 293 294 295 296 297 299 299 298 297 294 289 285 281 277 272 267 263 257 251 248
316 312 308 304 299 293 286 279 273 269 266 263 260 257 254 252 250 249 248 248 248 248 249 249 249 249 248 247 248 248 250 251 251 252 252 252 252 253 253 253 253 251 249 248 246 247 250 254 260 264 267 271 274 277 280 281 283 284 284 284 286 287 288 289 289 289 291 293 294 294 295 297 299 301 303 302 300 297 293 290 287 283 277 272 268 261 254 248
319 316 312 308 304 299 293 286 278 271 266 263 260 257 255 252 250 248 247 246 245 246 246 246 247 248 248 247 247 246 247 248 249 250 251 252 253 254 254 253 252 251 249 247 247 249 253 258 262 266 270 274 277 280 283 285 285 284 284 285 288 288 289 290 290 291 292 294 295 295 296 298 301 304 306 305 303 301 298 296 292 286 282 278 273 266 260 253
324 320 317 313 309 304 299 292 284 276 268 263 260 257 255 252 249 247 246 245 244 243 244 244 245 246 247 248 247 246 245 246 247 248 250 251 253 253 254 253 252 251 250 249 249 252 256 260 264 268 273 276 279 282 285 287 286 284 285 287 288 289 290 290 290 291 293 295 296 296 297 299 302 306 308 307 306 306 303 300 295 290 286 283 278 272 267 259
328 325 322 319 315 310 305 298 290 281 272 264 259 257 255 252 249 247 246 245 244 243 242 243 243 244 245 247 248 247 245 245 246 247 248 249 251 252 253 253 252 252 251 251 252 255 258 261 265 269 273 277 280 284 286 287 285 285 287 288 288 288 289 290 290 291 293 296 297 297 298 300 304 307 308 308 309 309 306 301 295 291 288 285 281 275 269 263
332 329 326 323 320 316 311 303 293 285 277 268 260 256 254 252 249 247 246 244 244 243 242 241 242 243 243 244 247 248 247 246 246 246 246 247 249 250 251 252 252 253 253 253 254 256 258 262 265 268 273 277 281 284 285 284 284 285 287 286 286 287 288 290 291 292 294 297 297 298 299 302 305 307 308 309 310 310 306 301 296 293 291 287 283 276 269 263
335 333 331 327 324 321 316 309 298 288 280 271 263 256 254 253 250 247 245 244 243 242 242 241 241 242 242 243 245 247 248 248 247 246 246 246 247 249 250 252 253 254 254 255 256 257 259 261 264 268 272 276 281 283 282 282 284 286 286 285 285 287 288 290 291 293 295 297 297 298 300 303 306 308 310 311 312 311 306 302 299 296 294 291 288 280 271 264
339 336 334 331 328 326 322 315 304 292 283 275 266 259 255 253 251 248 245 244 242 241 241 241 241 242 242 242 243 246 247 248 249 249 248 247 247 248 249 251 253 254 255 255 256 257 259 261 264 268 271 276 279 279 278 279 283 285 285 283 285 286 288 290 291 293 296 297 297 298 300 304 307 310 312 313 313 311 307 303 301 300 297 296 294 286 276 268
342 339 337 335 333 331 328 322 311 298 287 279 271 263 257 253 252 249 246 244 243 241 240 240 240 241 241 242 242 244 245 247 249 250 250 249 248 249 249 250 252 254 255 256 257 257 258 260 263 266 270 274 276 275 275 278 282 283 283 283 284 285 288 290 292 294 296 297 297 298 301 304 308 311 313 314 314 312 310 306 305 304 302 302 301 293 283 276
345 343 340 338 337 336 333 329 319 306 293 284 276 267 260 255 252 249 246 244 243 242 240 239 239 240 241 242 242 243 244 246 248 249 250 250 250 250 250 251 252 253 255 256 257 258 259 260 263 266 270 272 272 273 275 278 280 281 281 283 284 285 288 290 292 295 296 297 298 299 302 305 308 312 313 314 314 314 313 310 309 309 309 308 307 300 290 284
349 346 343 342 341 340 338 335 328 315 302 290 280 272 264 258 253 250 247 244 243 241 241 239 238 238 239 241 242 243 244 245 246 248 249 250 251 251 252 252 252 253 255 256 257 258 259 261 263 266 268 269 270 272 275 277 279 279 281 282 283 285 288 290 292 294 295 296 298 300 303 306 309 312 314 314 315 316 317 315 314 314 314 314 313 306 296 290
354 350 347 346 345 344 342 340 336 326 313 300 288 278 270 263 256 252 247 245 243 241 241 241 239 237 236 238 241 242 243 245 246 247 248 250 250 251 252 253 254 255 256 257 258 259 260 262 264 265 266 267 269 271 274 276 278 279 281 282 283 286 287 289 291 292 293 295 297 300 303 305 309 313 314 314 317 319 321 320 319 319 319 319 317 310 302 297
0 355 351 349 349 348 346 345 343 336 325 313 301 289 278 269 261 255 249 245 244 242 240 241 240 238 236 237 238 240 242 244 245 247 248 249 250 251 252 254 255 256 257 259 260 261 262 263 265 265 265 266 268 270 273 276 278 279 280 282 283 286 286 287 290 291 292 295 297 300 303 304 308 313 314 314 318 322 323 324 323 321 320 322 321 315 308 303
5 1 356 353 352 351 350 350 349 345 337 327 315 302 288 278 268 260 252 246 245 244 240 240 240 239 237 237 237 238 240 242 244 246 248 249 249 250 252 254 256 257 259 261 262 263 264 265 266 266 266 268 269 271 273 275 276 278 280 282 284 285 285 286 288 289 292 294 297 299 302 303 308 313 313 314 320 324 325 325 324 322 321 323 324 321 315 309
9 7 3 358 356 356 355 354 353 351 347 339 329 316 302 288 277 267 257 249 247 245 242 240 240 240 239 238 237 238 239 240 242 245 246 248 249 250 251 254 256 258 260 261 263 264 266 268 267 267 268 269 270 271 272 273 275 278 280 282 283 283 284 285 286 288 291 294 296 299 302 302 307 313 313 315 321 326 327 327 326 324 323 325 326 325 321 316
12 12 10 5 2 360 359 358 357 355 353 349 342 331 318 303 287 274 263 255 250 248 245 242 241 241 241 240 238 238 238 239 240 243 245 247 248 249 251 253 255 257 259 261 263 265 266 268 268 268 268 269 270 271 272 273 275 278 279 280 281 281 283 283 285 288 291 294 296 299 301 301 307 313 313 316 323 326 328 330 329 328 327 328 330 329 326 322
15 16 15 13 9 5 3 2 1 359 358 356 352 344 335 321 303 285 271 261 255 251 248 244 243 242 241 241 240 239 239 239 240 242 244 246 247 249 250 252 254 256 259 260 262 264 266 267 267 268 268 269 270 271 273 274 276 277 278 279 279 280 281 282 285 288 290 293 295 298 300 301 308 314 314 317 322 325 327 330 332 333 332 332 333 334 331 327
17 18 19 19 17 13 9 7 5 4 3 1 359 354 348 338 323 304 283 268 260 255 251 248 246 244 242 241 241 241 240 240 241 242 244 246 247 248 250 251 253 255 257 259 261 264 266 266 266 267 268 269 270 272 274 275 275 277 277 277 277 279 280 282 285 287 289 291 294 296 299 301 307 313 314 317 321 322 324 328 333 336 337 336 337 338 337 332
18 19 20 21 21 20 16 12 10 8 7 5 4 1 357 351 341 326 305 282 270 262 257 253 250 247 245 243 242 242 242 241 241 242 244 246 248 249 250 252 253 254 256 258 261 263 265 265 266 267 268 269 270 272 273 274 276 277 276 275 276 278 281 283 285 286 287 290 292 294 297 300 306 311 313 315 318 320 321 324 329 334 338 340 340 340 340 337
19 20 22 23 24 24 22 20 16 12 10 9 8 5 2 359 353 345 329 304 285 272 263 257 253 250 247 245 243 243 243 242 242 243 245 247 249 251 252 253 254 255 257 259 261 263 265 266 266 266 267 268 270 272 272 273 274 274 273 273 276 279 281 282 284 285 285 288 290 292 295 299 303 308 311 313 316 319 319 320 324 329 335 340 342 343 342 340
21 22 23 24 25 25 26 25 23 19 16 13 12 9 6 4 1 358 349 331 306 286 273 264 259 255 251 248 245 244 244 244 244 245 246 247 249 251 253 254 255 256 257 259 261 262 263 263 264 264 265 267 269 270 271 271 271 271 271 273 276 279 280 281 281 282 283 286 288 290 293 297 301 306 309 312 315 318 320 319 320 324 330 335 340 343 343 342
22 23 24 25 26 26 27 27 27 25 22 19 16 13 10 8 5 4 0 352 333 305 286 273 265 260 255 250 247 245 244 245 245 245 245 246 247 249 251 253 254 255 256 256 256 257 258 259 260 261 263 265 266 267 268 268 268 268 270 273 275 277 278 279 279 280 281 283 286 288 290 294 299 303 306 310 314 316 319 320 319 320 324 330 335 340 343 343
22 24 26 27 27 27 28 28 28 28 26 25 22 19 15 12 9 7 5 2 354 333 305 284 273 265 259 254 250 247 245 245 245 246 246 246 246 247 248 249 250 251 251 251 252 253 255 256 258 259 261 263 264 265 265 265 266 268 269 270 272 274 276 277 278 279 280 281 284 286 288 291 296 300 303 307 311 313 316 320 321 319 320 325 330 334 339 342
20 24 26 28 29 29 29 28 28 28 28 27 26 24 20 17 12 10 7 6 3 354 332 304 285 274 267 262 256 253 251 249 248 248 248 248 248 247 248 248 248 248 248 249 252 254 255 256 258 260 261 263 263 263 263 264 265 266 266 267 270 272 273 275 277 278 278 280 282 284 286 289 293 298 301 304 307 309 311 316 321 322 321 323 326 329 333 337
18 22 25 27 29 30 30 29 28 28 27 27 27 27 25 23 18 14 10 6 4 0 351 332 307 288 276 269 263 258 255 252 251 251 251 251 250 249 249 249 248 249 249 251 253 254 255 257 258 260 261 262 262 262 262 262 263 263 263 266 269 271 271 272 275 275 275 278 280 281 283 286 290 295 299 302 304 305 308 311 316 321 325 327 327 327 329 332
17 20 23 26 29 30 30 30 29 29 28 27 27 27 27 27 24 20 15 10 5 2 356 347 333 312 291 276 269 263 258 256 254 253 253 252 252 251 250 249 249 249 250 251 253 254 256 257 258 258 258 258 259 260 260 259 258 259 262 266 269 270 270 270 272 274 274 276 277 278 281 284 288 293 297 300 301 303 305 307 310 316 321 328 330 329 327 328
16 19 22 24 27 28 29 30 30 29 28 27 27 26 27 27 27 26 23 17 11 6 360 353 344 332 317 297 281 270 263 260 258 257 256 255 254 253 252 251 249 249 250 251 252 254 255 256 255 254 253 253 254 256 257 257 258 258 261 264 267 268 269 268 269 272 273 273 274 276 279 282 285 290 294 297 298 300 302 304 307 312 316 321 328 330 328 325
17 19 21 23 25 27 28 29 29 29 29 28 27 26 26 27 27 27 26 24 20 14 7 360 351 341 331 320 308 292 278 270 264 260 259 258 257 255 255 254 252 251 251 252 252 253 253 253 252 252 252 252 253 254 255 257 258 259 261 264 266 265 266 267 267 269 271 270 271 274 277 280 283 287 292 294 295 297 299 300 304 309 312 316 321 326 328 326
18 19 20 22 24 26 27 27 28 28 28 28 28 27 26 26 26 27 27 27 25 21 16 9 1 352 341 331 321 310 300 290 280 271 265 262 260 257 256 256 256 255 254 254 254 254 254 253 252 252 251 252 253 254 256 257 258 259 261 264 265 262 262 265 264 266 268 267 267 271 275 278 280 284 289 292 293 294 295 297 300 304 309 313 315 320 325 326
18 19 20 21 23 24 25 26 26 26 26 27 27 27 26 25 25 26 27 27 26 24 22 17 10 3 353 342 332 320 310 303 294 287 279 274 269 265 262 259 258 257 257 256 256 256 256 256 255 255 254 253 254 255 257 258 259 260 261 263 263 258 257 260 262 264 266 264 264 268 272 275 277 281 286 289 291 290 292 294 297 300 305 309 313 315 318 323
18 19 19 20 21 22 23 24 24 25 25 25 26 26 25 24 24 24 25 26 26 25 24 21 17 11 2 353 344 332 322 311 301 295 289 284 280 277 274 268 263 260 259 258 257 257 257 257 257 258 258 257 257 258 258 259 260 261 262 262 260 254 253 256 258 263 265 263 263 265 268 272 275 279 283 286 288 287 289 292 295 298 302 305 309 312 313 316
18 19 19 19 19 20 21 22 22 23 23 24 24 24 24 24 22 22 22 23 24 25 24 23 20 16 10 2 353 343 334 323 312 303 297 292 288 284 281 276 272 267 264 261 260 259 259 258 259 259 259 259 259 260 260 261 261 261 260 259 255 251 252 254 255 259 261 262 263 263 265 269 273 276 281 283 284 285 288 290 294 298 301 303 306 309 310 311
17 18 18 18 18 19 20 20 20 21 22 22 23 23 23 23 21 20 20 21 21 22 22 22 21 19 15 10 3 354 345 335 324 313 305 300 295 291 287 282 278 273 269 265 263 261 260 259 260 260 260 260 260 261 262 262 262 261 258 255 250 248 250 253 253 255 257 261 264 262 262 267 271 275 279 280 282 285 286 288 292 298 300 300 304 307 308 309
15 17 17 17 17 18 19 19 19 19 19 20 21 20 21 21 20 19 18 18 19 19 20 19 19 18 16 12 9 3 355 346 336 326 317 310 303 298 294 290 285 280 274 270 266 263 262 260 259 259 260 260 260 261 263 264 263 262 259 254 248 244 246 251 253 254 254 258 262 262 263 266 269 273 276 278 280 283 284 287 291 295 296 298 302 305 307 308
13 15 16 16 16 17 17 18 18 18 18 18 19 19 19 18 18 17 17 16 16 17 17 17 17 16 15 13 10 6 2 355 346 337 328 322 315 308 304 299 294 287 282 276 272 268 266 262 259 257 257 258 259 258 259 261 262 261 260 255 248 243 243 247 251 253 253 254 259 262 265 267 269 272 274 275 278 281 284 287 290 291 293 296 300 302 305 307
11 13 14 15 14 15 16 16 16 16 16 16 16 16 16 16 16 16 15 14 14 14 15 15 15 15 14 12 10 7 3 359 353 345 337 330 323 316 311 307 303 298 291 284 278 275 272 266 261 257 255 255 255 255 255 256 258 259 259 256 251 245 242 245 249 252 253 254 258 263 266 267 269 271 272 274 276 279 283 286 287 289 291 294 297 299 303 306
9 11 12 12 12 13 14 14 14 14 14 14 14 14 15 14 14 14 13 13 13 12 12 13 13 13 12 11 9 7 4 1 357 351 344 337 331 323 315 309 305 303 299 292 286 282 278 272 265 258 254 252 252 252 253 254 255 257 257 256 253 249 245 245 247 251 253 253 257 262 265 266 268 269 271 272 274 277 280 283 286 288 290 291 294 298 301 304
6 8 9 9 10 10 11 12 12 12 12 12 12 12 13 13 12 12 12 11 11 11 11 11 11 11 11 10 8 6 4 2 359 355 348 342 336 329 323 316 309 306 303 297 290 286 283 278 269 259 252 250 250 250 250 251 252 254 256 255 254 252 249 248 248 250 252 252 255 260 264 266 267 268 270 271 273 275 278 282 286 288 288 288 291 295 298 301
5 6 7 7 7 7 8 9 9 9 10 10 10 10 10 10 11 11 10 10 10 10 10 9 9 9 9 9 7 5 3 1 359 356 352 347 341 334 328 323 316 310 307 302 296 290 286 280 271 260 251 248 248 248 248 250 250 252 254 256 256 255 252 251 250 251 252 252 254 258 262 266 266 266 269 272 272 274 277 281 286 287 287 287 289 292 295 297
4 5 5 5 5 5 6 7 7 7 7 8 8 8 8 8 8 8 9 9 9 9 8 8 8 7 7 7 6 4 2 360 358 356 352 349 345 339 334 328 322 317 313 309 303 297 290 282 273 260 250 246 246 247 248 249 249 250 252 254 256 257 256 254 253 253 253 254 255 257 261 264 263 263 267 270 272 274 276 280 284 286 286 287 288 290 291 294
3 4 4 4 4 4 5 5 5 5 6 6 6 6 5 6 6 6 7 8 8 8 7 7 6 6 5 5 5 3 2 360 357 355 352 349 345 342 338 333 328 323 320 315 310 304 297 288 277 263 252 247 246 247 248 248 249 250 252 253 254 256 257 257 256 256 257 257 258 259 260 260 260 260 264 267 270 272 275 278 282 285 286 286 287 288 289 291
2 3 4 4 3 3 3 4 4 4 4 4 4 4 3 3 4 5 5 6 7 7 6 5 5 4 4 3 3 2 1 359 357 355 352 349 345 342 340 336 331 327 324 320 315 310 303 294 283 268 254 250 249 248 248 250 251 252 253 255 257 257 257 258 258 259 259 259 259 259 258 257 257 259 261 265 268 272 275 278 280 283 284 284 285 285 287 289
1 2 3 3 1 1 2 2 2 2 2 2 2 2 1 1 1 2 3 4 5 6 6 5 4 3 2 1 1 0 359 358 356 354 351 349 346 342 340 338 333 328 325 322 318 313 306 299 288 272 255 250 251 250 249 251 252 253 254 256 259 260 260 260 259 259 259 258 257 256 255 254 256 258 261 265 269 272 274 276 278 281 282 282 282 283 285 288
Height
10702 10700 10699 10698 10696 10695 10694 10693 10692 10692 10691 10690 10690 10689 10689 10688 10688 10687 10688 10688 10687 10687 10687 10686 10686 10685 10685 10684 10684 10684 10684 10684 10685 10685 10685 10685 10686 10686 10686 10687 10687 10688 10689 10689 10690 10690 10690 10691 10691 10691 10691 10691 10691 10691 10692 10692 10692 10692 10692 10693 10693 10694 10694 10693 10693 10692 10692 10692 10691 10691 10691 10690 10690 10688 10687 10686 10687 10686 10685 10685 10685 10685 10685 10686 10689 10691 10694 10697
10696 10695 10694 10692 10691 10690 10689 10688 10688 10687 10687 10687 10686 10685 10685 10685 10684 10684 10684 10684 10684 10684 10684 10683 10683 10682 10682 10682 10681 10681 10682 10682 10682 10682 10683 10683 10683 10684 10684 10684 10685 10686 10687 10687 10688 10688 10688 10689 10689 10689 10689 10689 10689 10689 10690 10690 10690 10690 10690 10691 10691 10691 10691 10691 10690 10690 10689 10689 10688 10688 10687 10687 10685 10685 10683 10682 10683 10682 10681 10682 10681 10680 10681 10681 10683 10686 10689 10693
10690 10689 10688 10687 10686 10685 10684 10683 10683 10683 10683 10682 10681 10681 10681 10681 10681 10681 10681 10681 10681 10681 10680 10680 10680 10679 10679 10679 10679 10679 10679 10679 10680 10680 10680 10681 10681 10681 10681 10682 10683 10684 10685 10685 10686 10686 10686 10687 10687 10686 10686 10687 10687 10687 10687 10687 10687 10688 10688 10689 10689 10689 10689 10688 10688 10688 10687 10686 10685 10684 10684 10683 10681 10681 10680 10678 10678 10677 10676 10677 10677 10676 10677 10677 10678 10681 10683 10687
10684 10683 10681 10680 10679 10679 10678 10678 10678 10677 10677 10677 10677 10676 10676 10677 10677 10677 10677 10677 10678 10678 10677 10677 10677 10676 10676 10676 10676 10676 10676 10677 10677 10677 10678 10678 10679 10679 10679 10680 10681 10682 10683 10683 10684 10684 10684 10684 10684 10684 10684 10684 10685 10685 10685 10685 10685 10685 10686 10687 10687 10686 10686 10686 10685 10685 10684 10683 10682 10681 10680 10679 10677 10676 10676 10674 10674 10673 10672 10672 10672 10672 10673 10672 10672 10675 10678 10681
10679 10677 10675 10674 10673 10672 10672 10671 10672 10672 10672 10672 10672 10671 10671 10672 10673 10673 10673 10674 10674 10674 10674 10674 10674 10673 10673 10674 10674 10674 10674 10674 10675 10675 10675 10676 10676 10677 10677 10678 10679 10680 10680 10681 10681 10682 10682 10682 10682 10681 10681 10682 10682 10682 10683 10683 10682 10683 10683 10684 10684 10684 10684 10683 10682 10682 10681 10680 10679 10678 10676 10675 10673 10672 10671 10670 10669 10668 10668 10667 10667 10667 10668 10667 10666 10668 10672 10676
10674 10672 10670 10668 10667 10666 10666 10665 10665 10666 10666 10667 10666 10666 10666 10667 10668 10668 10669 10670 10670 10670 10671 10671 10671 10670 10670 10671 10671 10671 10671 10671 10672 10672 10673 10673 10674 10675 10675 10676 10677 10678 10678 10679 10679 10679 10679 10679 10679 10679 10679 10679 10680 10680 10680 10680 10680 10680 10681 10681 10681 10681 10680 10680 10679 10678 10678 10677 10675 10674 10672 10670 10669 10668 10667 10666 10664 10662 10662 10661 10661 10662 10662 10662 10662 10663 10667 10672
10669 10667 10665 10663 10662 10660 10659 10659 10659 10659 10660 10661 10661 10660 10661 10661 10662 10663 10664 10665 10666 10666 10667 10667 10667 10667 10667 10668 10668 10668 10669 10669 10669 10670 10670 10671 10671 10672 10673 10674 10675 10676 10676 10677 10677 10677 10676 10676 10676 10676 10676 10677 10677 10677 10677 10677 10677 10677 10678 10678 10678 10678 10677 10676 10676 10675 10674 10673 10672 10670 10668 10666 10665 10664 10664 10662 10660 10657 10656 10655 10654 10656 10657 10657 10657 10658 10663 10668
10665 10663 10660 10658 10657 10655 10654 10653 10653 10653 10653 10654 10654 10655 10655 10656 10657 10658 10659 10661 10661 10662 10663 10663 10663 10663 10664 10664 10665 10665 10666 10666 10667 10667 10668 10668 10669 10670 10671 10671 10672 10673 10674 10674 10674 10674 10674 10674 10674 10674 10674 10674 10674 10674 10674 10675 10674 10674 10674 10675 10675 10674 10674 10673 10672 10672 10671 10669 10668 10666 10663 10661 10660 10660 10660 10658 10656 10653 10651 10650 10648 10649 10650 10651 10652 10655 10658 10661
10661 10658 10656 10654 10652 10650 10648 10647 10646 10647 10647 10647 10648 10648 10649 10650 10651 10653 10654 10655 10657 10657 10659 10659 10659 10660 10660 10661 10661 10662 10663 10663 10664 10664 10665 10666 10667 10667 10668 10668 10669 10670 10671 10671 10671 10671 10671 10671 10671 10671 10671 10671 10671 10671 10671 10672 10672 10671 10671 10671 10671 10671 10670 10670 10669 10668 10667 10666 10664 10662 10659 10657 10655 10655 10654 10653 10651 10649 10646 10644 10643 10643 10643 10644 10646 10650 10651 10650
10657 10654 10651 10649 10647 10645 10643 10641 10640 10640 10641 10641 10641 10641 10642 10644 10645 10647 10648 10650 10651 10653 10654 10655 10655 10656 10656 10657 10658 10659 10659 10660 10661 10662 10662 10663 10664 10664 10665 10665 10666 10667 10667 10668 10668 10668 10668 10668 10668 10668 10668 10668 10668 10668 10668 10668 10669 10668 10667 10667 10667 10667 10666 10666 10665 10664 10664 10663 10661 10658 10655 10652 10651 10650 10649 10647 10646 10643 10640 10638 10637 10635 10635 10637 10640 10642 10642 10642
10653 10650 10647 10644 10642 10639 10637 10635 10634 10634 10634 10635 10635 10635 10636 10637 10639 10641 10642 10644 10646 10647 10649 10650 10651 10651 10652 10653 10654 10655 10656 10657 10657 10658 10659 10660 10660 10661 10662 10662 10663 10664 10664 10665 10665 10665 10665 10665 10665 10665 10665 10665 10665 10665 10664 10665 10665 10664 10663 10663 10663 10663 10662 10662 10661 10660 10660 10659 10657 10654 10651 10648 10646 10645 10643 10642 10640 10638 10635 10632 10631 10628 10627 10630 10632 10633 10634 10634
10649 10646 10643 10640 10637 10635 10632 10630 10628 10628 10628 10628 10629 10629 10629 10630 10632 10634 10636 10638 10640 10642 10644 10645 10646 10647 10648 10649 10650 10651 10652 10653 10654 10655 10655 10656 10657 10658 10658 10659 10660 10661 10661 10661 10662 10662 10662 10662 10662 10662 10661 10662 10662 10661 10661 10661 10661 10660 10660 10660 10659 10658 10658 10657 10657 10656 10656 10655 10653 10650 10647 10643 10641 10640 10638 10636 10634 10632 10629 10626 10624 10621 10620 10622 10623 10624 10625 10626
10646 10642 10639 10636 10633 10630 10627 10624 10622 10621 10621 10622 10622 10622 10623 10624 10626 10627 10629 10632 10634 10637 10639 10640 10642 10643 10644 10645 10646 10647 10648 10649 10650 10651 10652 10653 10654 10654 10655 10656 10657 10657 10658 10658 10658 10658 10659 10659 10659 10658 10658 10658 10658 10658 10658 10657 10657 10656 10656 10656 10655 10654 10654 10653 10653 10652 10652 10651 10648 10646 10642 10639 10637 10636 10633 10630 10628 10627 10624 10621 10618 10615 10614 10614 10614 10614 10615 10616
10642 10638 10635 10632 10629 10626 10623 10619 10616 10615 10614 10614 10616 10616 10616 10618 10619 10621 10623 10625 10628 10631 10633 10635 10636 10638 10640 10641 10642 10643 10644 10645 10646 10647 10648 10650 10650 10651 10651 10652 10653 10654 10654 10654 10655 10655 10655 10655 10655 10655 10655 10655 10654 10654 10654 10653 10652 10652 10652 10652 10651 10651 10650 10649 10649 10648 10648 10646 10644 10641 10637 10635 10634 10632 10629 10626 10624 10621 10619 10616 10613 10610 10608 10607 10606 10605 10605 10605
10638 10634 10631 10628 10624 10621 10618 10615 10611 10609 10607 10607 10608 10610 10610 10611 10613 10615 10617 10619 10622 10625 10627 10629 10631 10633 10635 10636 10638 10639 10640 10641 10642 10643 10644 10646 10646 10647 10648 10649 10649 10650 10650 10651 10651 10651 10651 10652 10652 10652 10651 10651 10651 10651 10651 10649 10649 10649 10649 10648 10647 10647 10646 10646 10645 10644 10644 10643 10640 10636 10633 10630 10629 10628 10625 10622 10619 10616 10614 10611 10608 10605 10602 10600 10599 10597 10596 10596
10635 10631 10627 10623 10620 10616 10613 10609 10606 10603 10601 10600 10602 10603 10604 10605 10607 10609 10611 10613 10616 10618 10621 10624 10625 10627 10630 10632 10633 10634 10636 10637 10638 10639 10640 10641 10642 10643 10644 10645 10645 10646 10646 10647 10647 10647 10647 10648 10648 10648 10648 10648 10648 10648 10647 10645 10645 10646 10646 10645 10644 10643 10642 10642 10640 10639 10640 10639 10636 10633 10629 10626 10624 10622 10620 10617 10614 10612 10608 10606 10603 10600 10597 10594 10591 10589 10587 10587
10632 10627 10623 10619 10615 10612 10608 10605 10601 10598 10596 10595 10596 10598 10599 10600 10601 10603 10605 10607 10609 10612 10615 10618 10620 10622 10625 10628 10629 10630 10631 10632 10634 10635 10636 10637 10638 10639 10640 10641 10641 10642 10642 10643 10643 10643 10643 10644 10644 10644 10645 10645 10644 10644 10643 10642 10642 10643 10642 10641 10641 10639 10639 10638 10636 10635 10635 10635 10633 10629 10625 10622 10619 10617 10614 10611 10609 10606 10603 10600 10598 10595 10591 10588 10585 10582 10580 10579
10629 10624 10620 10615 10611 10608 10604 10600 10597 10594 10592 10591 10591 10592 10594 10595 10596 10598 10600 10601 10603 10606 10609 10612 10614 10617 10620 10623 10624 10625 10627 10628 10629 10631 10631 10633 10634 10635 10636 10637 10637 10638 10638 10638 10639 10639 10639 10640 10640 10641 10641 10641 10641 10639 10638 10639 10639 10639 10638 10638 10637 10636 10635 10634 10632 10630 10630 10630 10628 10625 10622 10619 10616 10612 10609 10606 10604 10601 10597 10594 10592 10589 10585 10581 10578 10575 10573 10571
10627 10622 10617 10612 10608 10604 10600 10596 10593 10591 10589 10588 10587 10588 10589 10590 10591 10592 10594 10596 10598 10601 10603 10606 10608 10612 10615 10617 10619 10620 10622 10624 10625 10626 10627 10628 10630 10631 10632 10632 10633 10633 10634 10634 10634 10634 10635 10636 10637 10637 10638 10637 10636 10635 10634 10635 10636 10635 10634 10634 10633 10633 10632 10630 10628 10626 10625 10625 10624 10621 10618 10615 10612 10609 10604 10601 10599 10595 10591 10587 10585 10583 10579 10575 10572 10569 10566 10564
10624 10619 10614 10609 10605 10601 10597 10593 10590 10587 10586 10584 10584 10584 10584 10585 10586 10587 10589 10591 10593 10595 10597 10600 10603 10607 10610 10611 10613 10615 10618 10619 10620 10621 10622 10624 10625 10626 10627 10628 10629 10629 10629 10629 10629 10630 10631 10632 10633 10634 10633 10632 10631 10631 10631 10631 10631 10631 10630 10630 10629 10629 10628 10626 10625 10623 10621 10620 10619 10616 10614 10611 10609 10606 10601 10596 10594 10590 10586 10582 10579 10577 10574 10570 10567 10564 10561 10559
10622 10617 10612 10607 10602 10598 10594 10590 10587 10585 10583 10581 10580 10580 10580 10580 10581 10582 10584 10586 10587 10589 10593 10595 10598 10602 10604 10605 10607 10611 10613 10615 10616 10617 10618 10619 10621 10622 10622 10623 10624 10625 10625 10625 10625 10625 10626 10628 10629 10630 10629 10628 10628 10627 10627 10627 10627 10627 10626 10626 10625 10625 10624 10622 10621 10619 10618 10616 10615 10612 10610 10607 10605 10603 10598 10593 10590 10586 10582 10578 10574 10571 10569 10566 10562 10559 10556 10554
10621 10615 10610 10605 10600 10596 10591 10588 10585 10582 10580 10579 10578 10577 10576 10576 10577 10578 10580 10581 10581 10584 10588 10590 10593 10596 10598 10599 10602 10606 10608 10610 10611 10612 10614 10615 10616 10617 10618 10619 10620 10620 10621 10621 10621 10621 10622 10624 10626 10625 10624 10623 10624 10624 10623 10623 10623 10622 10622 10621 10621 10621 10620 10619 10617 10615 10613 10612 10611 10609 10606 10603 10602 10600 10595 10591 10588 10584 10579 10575 10571 10568 10566 10563 10558 10555 10552 10549
10620 10614 10609 10603 10599 10594 10590 10586 10582 10580 10578 10576 10575 10574 10573 10573 10573 10574 10576 10576 10576 10579 10584 10585 10587 10590 10592 10594 10597 10600 10602 10605 10606 10608 10609 10610 10612 10613 10613 10614 10615 10616 10616 10616 10617 10616 10618 10621 10622 10620 10619 10619 10619 10619 10619 10619 10618 10618 10618 10617 10617 10616 10615 10615 10613 10611 10609 10608 10607 10605 10602 10599 10599 10597 10591 10587 10585 10582 10578 10574 10569 10566 10563 10560 10556 10552 10548 10545
10620 10614 10608 10603 10598 10593 10589 10584 10581 10578 10576 10574 10573 10571 10570 10570 10570 10570 10572 10572 10572 10574 10578 10581 10582 10584 10587 10590 10592 10594 10597 10599 10601 10603 10604 10605 10607 10608 10609 10610 10610 10612 10612 10612 10612 10612 10614 10617 10617 10615 10615 10614 10614 10615 10615 10615 10614 10614 10613 10613 10612 10612 10610 10610 10609 10607 10606 10604 10602 10601 10599 10595 10596 10594 10588 10584 10583 10580 10576 10572 10568 10564 10561 10558 10554 10550 10546 10542
10620 10614 10609 10603 10597 10593 10588 10584 10580 10577 10574 10572 10571 10569 10568 10567 10567 10567 10568 10569 10569 10571 10573 10576 10577 10580 10582 10584 10587 10589 10591 10594 10596 10597 10599 10600 10602 10604 10605 10606 10607 10608 10607 10607 10607 10607 10610 10613 10612 10611 10610 10610 10610 10610 10610 10610 10610 10610 10609 10609 10608 10607 10606 10606 10605 10603 10602 10600 10597 10597 10595 10591 10591 10591 10585 10581 10579 10576 10573 10570 10566 10562 10559 10556 10552 10548 10544 10540
10620 10614 10609 10603 10598 10592 10588 10583 10579 10576 10573 10571 10569 10567 10566 10565 10564 10565 10565 10565 10566 10567 10569 10571 10573 10575 10577 10579 10581 10583 10586 10589 10591 10592 10594 10595 10597 10599 10600 10601 10603 10604 10603 10603 10603 10604 10606 10608 10607 10606 10605 10605 10605 10605 10606 10606 10606 10605 10605 10604 10603 10603 10602 10601 10601 10600 10598 10597 10594 10592 10591 10587 10587 10587 10582 10578 10576 10573 10570 10567 10563 10560 10556 10553 10550 10546 10543 10540
10621 10615 10609 10604 10599 10593 10588 10584 10580 10576 10573 10570 10568 10566 10565 10563 10562 10562 10562 10563 10563 10564 10565 10567 10569 10570 10572 10574 10576 10578 10581 10584 10586 10588 10589 10590 10592 10593 10595 10597 10598 10599 10599 10599 10599 10600 10602 10603 10603 10601 10601 10601 10600 10601 10602 10601 10600 10601 10601 10600 10599 10599 10598 10597 10596 10596 10594 10593 10591 10589 10587 10584 10583 10582 10578 10575 10573 10570 10568 10565 10561 10558 10554 10551 10548 10545 10542 10539
10622 10616 10610 10605 10600 10595 10590 10585 10581 10577 10573 10570 10567 10565 10563 10562 10561 10560 10560 10560 10560 10561 10562 10563 10565 10566 10567 10569 10572 10574 10576 10579 10581 10583 10584 10585 10587 10588 10590 10592 10593 10594 10594 10594 10595 10595 10596 10598 10598 10597 10596 10596 10596 10596 10597 10596 10596 10597 10596 10595 10595 10595 10594 10592 10592 10591 10590 10590 10589 10586 10584 10581 10580 10579 10576 10573 10570 10568 10565 10562 10559 10556 10553 10549 10546 10544 10541 10538
10624 10618 10612 10607 10601 10596 10591 10586 10582 10578 10574 10570 10567 10565 10563 10561 10560 10559 10559 10558 10558 10559 10559 10560 10561 10562 10563 10565 10567 10569 10572 10574 10576 10577 10579 10581 10582 10583 10585 10587 10588 10589 10589 10589 10590 10591 10591 10592 10593 10593 10592 10591 10591 10592 10592 10592 10592 10592 10591 10591 10591 10591 10590 10588 10587 10586 10586 10586 10585 10583 10581 10578 10577 10575 10573 10570 10568 10566 10563 10560 10557 10554 10551 10548 10545 10542 10540 10537
10626 10620 10615 10609 10604 10598 10593 10588 10584 10579 10575 10572 10568 10565 10563 10561 10560 10558 10558 10557 10557 10557 10557 10557 10558 10559 10560 10561 10563 10565 10567 10569 10571 10573 10575 10576 10578 10579 10581 10582 10583 10584 10584 10585 10585 10586 10586 10586 10587 10587 10587 10587 10587 10587 10587 10588 10588 10587 10587 10587 10587 10586 10586 10585 10583 10582 10581 10581 10581 10580 10578 10576 10574 10572 10569 10567 10565 10563 10561 10558 10555 10552 10550 10547 10544 10541 10539 10537
10628 10623 10617 10612 10606 10601 10595 10591 10586 10581 10577 10573 10569 10566 10563 10561 10559 10558 10557 10556 10556 10555 10555 10555 10555 10556 10557 10558 10559 10561 10563 10565 10566 10568 10570 10572 10573 10575 10576 10577 10578 10578 10579 10580 10580 10580 10581 10581 10582 10582 10582 10582 10582 10582 10583 10583 10583 10583 10583 10583 10582 10582 10582 10581 10579 10579 10578 10577 10577 10577 10575 10573 10571 10569 10566 10564 10562 10560 10558 10556 10553 10550 10548 10545 10543 10540 10538 10535
10631 10626 10620 10614 10609 10603 10598 10593 10588 10584 10579 10575 10571 10568 10565 10562 10559 10558 10556 10556 10555 10554 10553 10553 10553 10553 10554 10555 10556 10557 10559 10560 10562 10564 10565 10566 10568 10570 10570 10572 10573 10573 10574 10574 10574 10575 10575 10576 10577 10577 10578 10578 10578 10578 10578 10579 10579 10579 10579 10578 10578 10578 10578 10577 10576 10575 10574 10573 10573 10572 10571 10569 10568 10566 10564 10561 10560 10557 10556 10554 10551 10548 10546 10544 10541 10539 10536 10534
10634 10628 10623 10617 10611 10606 10601 10596 10591 10587 10582 10578 10573 10569 10566 10563 10560 10558 10556 10555 10554 10553 10552 10552 10551 10551 10552 10553 10553 10555 10556 10557 10558 10559 10561 10562 10563 10564 10565 10566 10567 10568 10568 10568 10568 10569 10570 10571 10572 10572 10573 10573 10573 10573 10574 10574 10574 10575 10574 10574 10574 10574 10574 10573 10572 10571 10570 10569 10569 10568 10567 10565 10564 10563 10561 10559 10557 10555 10553 10552 10550 10547 10544 10542 10539 10537 10535 10533
10636 10630 10625 10620 10614 10609 10604 10599 10594 10589 10585 10580 10576 10572 10568 10564 10561 10558 10556 10555 10554 10553 10552 10551 10550 10550 10550 10550 10551 10553 10553 10553 10554 10555 10556 10557 10558 10559 10560 10561 10562 10562 10563 10563 10563 10564 10564 10565 10566 10567 10567 10568 10568 10568 10569 10569 10569 10569 10569 10570 10569 10568 10569 10569 10568 10567 10566 10565 10565 10564 10563 10562 10560 10559 10558 10556 10554 10552 10550 10549 10548 10545 10542 10540 10537 10535 10533 10531
10637 10632 10627 10622 10617 10612 10607 10602 10597 10592 10588 10583 10578 10574 10570 10567 10563 10560 10557 10555 10553 10552 10551 10550 10549 10548 10548 10548 10548 10549 10549 10549 10550 10551 10552 10552 10553 10554 10555 10556 10556 10557 10557 10557 10558 10558 10558 10559 10561 10561 10562 10562 10562 10562 10563 10563 10564 10564 10564 10565 10565 10563 10564 10565 10564 10563 10562 10561 10561 10559 10559 10558 10557 10556 10555 10553 10551 10549 10547 10546 10544 10543 10540 10538 10535 10533 10531 10529
10638 10633 10629 10624 10619 10614 10610 10605 10600 10595 10590 10586 10581 10577 10573 10569 10565 10562 10559 10556 10554 10552 10550 10549 10548 10547 10546 10546 10546 10546 10546 10546 10547 10547 10547 10547 10548 10549 10549 10550 10550 10550 10551 10551 10551 10552 10552 10553 10555 10555 10556 10556 10556 10556 10557 10557 10558 10559 10559 10560 10560 10559 10559 10560 10560 10559 10558 10558 10557 10555 10555 10555 10553 10552 10552 10551 10548 10547 10545 10543 10541 10540 10538 10535 10533 10531 10529 10527
10639 10635 10630 10626 10621 10617 10612 10607 10602 10598 10593 10589 10584 10580 10576 10572 10568 10564 10561 10558 10555 10553 10551 10549 10547 10545 10544 10543 10543 10542 10542 10542 10543 10543 10542 10543 10543 10543 10544 10544 10544 10545 10545 10545 10546 10547 10546 10547 10548 10548 10549 10550 10550 10550 10551 10551 10553 10554 10554 10555 10556 10555 10555 10554 10555 10555 10554 10554 10553 10551 10551 10551 10550 10549 10549 10548 10546 10544 10542 10540 10538 10537 10535 10533 10531 10528 10526 10524
10641 10636 10632 10628 10623 10618 10614 10609 10604 10600 10595 10591 10587 10582 10578 10574 10570 10567 10563 10560 10557 10554 10551 10549 10547 10545 10543 10542 10541 10540 10539 10538 10538 10538 10537 10538 10538 10538 10538 10539 10539 10539 10540 10539 10540 10541 10540 10540 10541 10542 10543 10543 10543 10544 10545 10546 10547 10548 10549 10550 10551 10551 10550 10549 10550 10551 10550 10550 10550 10547 10547 10546 10545 10546 10546 10545 10543 10541 10540 10538 10536 10534 10532 10531 10528 10526 10524 10521
10643 10638 10633 10629 10624 10619 10615 10610 10606 10602 10597 10593 10589 10585 10581 10577 10573 10569 10565 10562 10558 10555 10552 10549 10547 10545 10543 10541 10539 10538 10536 10535 10534 10533 10533 10533 10532 10532 10533 10534 10534 10534 10534 10534 10534 10534 10534 10534 10534 10535 10536 10537 10537 10538 10539 10540 10541 10542 10543 10545 10545 10545 10545 10544 10544 10546 10546 10546 10546 10544 10542 10540 10540 10542 10543 10542 10540 10538 10536 10535 10534 10532 10530 10528 10526 10524 10522 10519
10643 10639 10634 10629 10625 10621 10616 10612 10608 10603 10599 10595 10591 10587 10583 10579 10575 10571 10567 10564 10560 10556 10553 10550 10547 10544 10542 10540 10538 10537 10535 10533 10531 10530 10529 10528 10527 10527 10527 10527 10528 10527 10527 10528 10528 10528 10528 10528 10528 10529 10529 10530 10531 10531 10532 10533 10534 10536 10537 10538 10539 10539 10539 10539 10540 10541 10540 10541 10542 10541 10539 10535 10535 10538 10539 10539 10537 10534 10533 10532 10531 10530 10528 10526 10524 10522 10520 10517
10643 10639 10635 10630 10626 10622 10617 10613 10609 10606 10602 10598 10594 10589 10585 10581 10577 10573 10569 10566 10562 10558 10555 10551 10548 10544 10541 10539 10537 10535 10533 10531 10529 10527 10526 10525 10524 10523 10522 10521 10521 10521 10520 10521 10521 10521 10521 10521 10521 10523 10523 10523 10524 10525 10525 10526 10528 10529 10531 10532 10533 10533 10533 10534 10536 10536 10534 10535 10537 10537 10536 10531 10530 10533 10535 10535 10533 10531 10529 10528 10527 10526 10525 10523 10522 10520 10518 10515
10645 10641 10636 10632 10627 10623 10618 10614 10611 10607 10603 10600 10596 10592 10588 10583 10579 10575 10571 10567 10563 10559 10556 10552 10548 10545 10541 10538 10536 10533 10531 10529 10527 10525 10523 10521 10520 10519 10517 10516 10515 10514 10514 10514 10514 10513 10513 10514 10515 10515 10516 10516 10517 10519 10519 10520 10521 10523 10525 10526 10526 10528 10528 10528 10530 10530 10529 10531 10531 10532 10532 10528 10525 10528 10530 10530 10528 10527 10526 10524 10522 10522 10521 10519 10518 10517 10515 10513
10645 10641 10637 10632 10628 10623 10619 10616 10612 10607 10604 10600 10597 10593 10589 10585 10581 10577 10572 10568 10564 10560 10556 10552 10548 10544 10541 10537 10534 10532 10529 10527 10525 10522 10520 10518 10516 10514 10513 10511 10510 10509 10508 10508 10507 10506 10506 10507 10508 10508 10509 10510 10511 10513 10513 10513 10515 10516 10517 10519 10520 10522 10523 10523 10524 10524 10525 10527 10525 10525 10528 10524 10521 10524 10525 10524 10523 10522 10521 10520 10518 10518 10516 10514 10514 10512 10511 10510
10645 10641 10637 10633 10629 10624 10620 10616 10612 10608 10604 10600 10597 10593 10590 10586 10582 10578 10574 10569 10565 10561 10557 10553 10549 10545 10540 10536 10533 10529 10527 10524 10522 10520 10517 10515 10513 10510 10509 10507 10505 10503 10502 10501 10500 10499 10499 10501 10501 10502 10503 10503 10504 10507 10508 10507 10508 10509 10511 10513 10515 10516 10517 10518 10518 10518 10521 10522 10519 10520 10523 10519 10516 10520 10520 10518 10519 10517 10516 10516 10514 10513 10511 10510 10509 10508 10507 10505
10645 10642 10638 10633 10629 10625 10620 10616 10612 10608 10604 10600 10597 10593 10589 10586 10582 10578 10574 10570 10566 10562 10557 10554 10550 10546 10541 10537 10533 10529 10525 10522 10519 10516 10514 10512 10510 10507 10504 10502 10501 10499 10497 10496 10494 10493 10493 10493 10494 10495 10497 10497 10498 10500 10501 10501 10502 10503 10505 10506 10508 10510 10511 10512 10512 10513 10515 10516 10514 10516 10518 10514 10512 10514 10514 10513 10514 10513 10512 10511 10510 10508 10507 10505 10504 10503 10502 10500
10645 10641 10638 10634 10629 10625 10621 10617 10613 10609 10605 10601 10597 10593 10589 10586 10582 10578 10574 10570 10566 10562 10557 10553 10549 10546 10541 10537 10533 10529 10525 10521 10517 10514 10511 10509 10507 10504 10502 10499 10497 10495 10493 10491 10489 10487 10487 10486 10486 10488 10490 10490 10491 10493 10494 10495 10497 10498 10499 10500 10502 10503 10504 10506 10507 10508 10509 10510 10511 10511 10511 10510 10507 10507 10508 10509 10509 10508 10508 10506 10505 10504 10502 10501 10500 10498 10497 10496
10644 10641 10637 10633 10629 10625 10621 10618 10614 10610 10606 10601 10597 10594 10590 10586 10582 10578 10574 10570 10566 10561 10557 10553 10549 10545 10541 10537 10532 10528 10524 10521 10517 10513 10509 10506 10503 10500 10498 10496 10493 10491 10489 10486 10484 10482 10481 10480 10479 10480 10482 10483 10484 10486 10487 10489 10492 10492 10493 10494 10495 10496 10498 10500 10502 10503 10502 10505 10507 10505 10505 10506 10503 10500 10502 10504 10504 10504 10502 10500 10500 10499 10498 10497 10496 10494 10493 10491
10644 10640 10636 10632 10628 10624 10620 10617 10613 10609 10605 10601 10597 10593 10589 10586 10582 10578 10574 10570 10566 10561 10557 10552 10548 10544 10540 10536 10531 10527 10523 10518 10515 10512 10508 10504 10500 10497 10495 10492 10489 10487 10484 10482 10480 10478 10476 10474 10473 10474 10475 10476 10478 10479 10480 10483 10486 10487 10487 10489 10488 10489 10492 10494 10496 10496 10496 10499 10501 10499 10500 10501 10497 10494 10496 10497 10498 10498 10496 10495 10495 10494 10493 10492 10491 10490 10489 10487
10643 10640 10636 10632 10628 10624 10620 10616 10612 10608 10605 10600 10596 10592 10588 10585 10581 10577 10573 10569 10565 10561 10556 10552 10548 10543 10539 10535 10531 10526 10522 10517 10513 10509 10505 10501 10497 10494 10491 10488 10485 10482 10480 10477 10475 10474 10472 10469 10468 10469 10469 10470 10472 10473 10475 10478 10480 10481 10482 10483 10482 10482 10485 10488 10489 10489 10490 10493 10494 10493 10495 10494 10490 10490 10492 10491 10491 10492 10491 10490 10490 10489 10488 10487 10486 10485 10484 10483
10642 10639 10635 10631 10627 10624 10620 10616 10612 10608 10604 10600 10596 10592 10588 10584 10580 10576 10572 10569 10564 10560 10555 10551 10547 10542 10538 10534 10530 10525 10520 10516 10511 10507 10503 10499 10495 10491 10487 10484 10481 10478 10476 10474 10472 10470 10468 10465 10465 10465 10465 10466 10467 10469 10471 10472 10474 10476 10477 10476 10476 10477 10479 10481 10482 10483 10485 10487 10487 10488 10489 10487 10484 10486 10487 10485 10485 10486 10485 10485 10485 10484 10483 10482 10481 10480 10479 10478
10641 10637 10634 10630 10627 10623 10620 10616 10612 10608 10604 10601 10596 10592 10588 10584 10580 10576 10571 10567 10563 10559 10554 10550 10545 10541 10536 10532 10528 10524 10519 10514 10510 10506 10502 10498 10493 10489 10485 10481 10478 10475 10473 10471 10469 10467 10465 10462 10462 10462 10462 10462 10463 10465 10466 10467 10469 10471 10470 10469 10470 10472 10474 10475 10476 10477 10479 10480 10480 10481 10482 10480 10478 10480 10481 10479 10479 10479 10479 10479 10479 10479 10478 10477 10476 10474 10473 10472
10639 10635 10632 10629 10625 10622 10619 10616 10612 10608 10604 10600 10596 10592 10588 10584 10580 10575 10571 10566 10562 10558 10553 10549 10544 10539 10534 10530 10525 10522 10518 10513 10508 10503 10499 10495 10491 10487 10483 10479 10475 10472 10470 10468 10466 10464 10462 10460 10459 10460 10460 10458 10458 10460 10462 10463 10465 10466 10464 10464 10466 10467 10468 10469 10470 10471 10472 10473 10473 10474 10474 10474 10474 10474 10474 10474 10473 10473 10473 10473 10474 10473 10472 10471 10470 10468 10467 10466